User: anonymous
Location: Bonny Doon Airfield
(37.0704°N, 122.1252°W)
Time: 00:24:36
(UTC-07:00)
Language:

BREEZE M DEB (TANK) - Orbit

View from above orbital plane
View from above orbital plane
View from above satellite
View from above satellite

Ground track
Ground track

The orbit data is extracted from the following two-line orbital elements,

1 33437U 08057B   14257.39553389  .00001759  00000-0  55348-3 0   861
2 33437 049.5755 024.2965 5008419 066.3726 352.1517 05.55926358117609
Epoch (UTC): 14 September 2014 09:29:34
Eccentricity: 0.5008419
inclination: 49.5755°
perigee height: 341 km
apogee height: 13823 km
right ascension of ascending node: 24.2965°
argument of perigee: 66.3726°
revolutions per day: 5.55926358
mean anomaly at epoch: 352.1517°
orbit number at epoch: 11760

The dashed part of the orbit path shows where the satellite is in the earth's shadow,  

DLR